Regional Weather Roundup
Issued by NWS

Home | Current Version | Previous Version | Text Only | Print | Product List | Glossary On
Versions: 1 2 3 4 5 6 7 8 9 10 11 12 13 14 15 16 17 18 19 20 21 22 23 24 25 26 27 28 29 30 31 32 33 34 35 36 37 38 39 40 41 42 43 44 45 46 47 48 49 50
816
ASUS43 KDTX 230801
RWRMI
MICHIGAN HOURLY REGIONAL WEATHER ROUNDUP
NATIONAL WEATHER SERVICE DETROIT/PONTIAC MI
400 AM EDT SUN APR 23 2017

NOTE: "FAIR" INDICATES FEW OR NO CLOUDS BELOW 12,000 FEET WITH NO
SIGNIFICANT WEATHER AND/OR OBSTRUCTION TO VISIBILITY.

MIZ047>049-052>055-059>063-066>070-074>076-081>083-230900-
SOUTHEAST LOWER MICHIGAN

CITY           SKY/WX    TMP DP  RH WIND       PRES   REMARKS
ADRIAN         CLEAR     36  35  96 CALM      30.11F
ALMA           CLEAR     37  34  89 CALM      30.10S
ANN ARBOR      CLEAR     34  34 100 CALM      30.10F
BAD AXE        CLEAR     33  28  82 CALM      30.10F
CARO           CLEAR     33  32  96 CALM      30.09F
DETROIT CITY   CLEAR     38  30  73 CALM      30.11F
DETROIT        CLEAR     41  34  76 CALM      30.12F
FLINT          CLEAR     36  33  89 CALM      30.10F
GROSSE ILE     CLEAR     38  33  81 CALM      30.10F
HILLSDALE      CLEAR     37  34  87 CALM      30.09F
HOWELL         CLEAR     37  33  86 CALM      30.09F

CITY           SKY/WX    TMP DP  RH WIND       PRES   REMARKS
JACKSON        CLEAR     38  34  85 CALM      30.10F
LAMBERTVILLE   PTCLDY    35  33  95 CALM      30.11F
LANSING        CLEAR     38  32  79 CALM      30.11F
LAPEER         FAIR      33  33  98 CALM      30.10F
MASON          CLEAR     37  35  92 S3        30.10F
MONROE         CLEAR     36  35  98 W6        30.10F WCI  31
MT. CLEMENS    CLEAR     34  33  99 CALM      30.08F
PONTIAC        CLEAR     37  33  85 NW3       30.09F
PORT HOPE        N/A     40  22  48 SW6       30.07F
PORT HURON     FOG       30  28  93 CALM      30.10F VSB 1
TRI CITIES     CLEAR     45  32  60 SW7       30.09F
MIDLAND        FAIR      36  34  92 CALM      30.09S
TROY           CLEAR     39  33  76 CALM      30.11F
SAGINAW HB     CLEAR     41  30  65 CALM      30.09S
$$
MIZ043>046-050>051-056>058-064>065-071>073-077>080-230900-
SOUTHWEST LOWER MICHIGAN

CITY           SKY/WX    TMP DP  RH WIND       PRES   REMARKS
BATTLE CREEK   CLEAR     38  33  82 CALM      30.11F
BENTON HARBOR  CLEAR     32  27  81 CALM      30.12S
BIG RAPIDS     CLEAR     34  28  81 CALM      30.09F
COLDWATER      CLEAR     37  35  90 CALM      30.11S
FREMONT        FAIR      35  27  73 CALM      30.11S
HOLLAND        CLEAR     37  33  85 CALM      30.11F
GRAND RAPIDS   CLEAR     38  36  92 CALM      30.10F
IONIA          FAIR      40  34  78 SW6       30.09F
KALAMAZOO      CLEAR     36  28  73 CALM      30.11F
LUDINGTON      CLEAR     32  30  92 CALM      30.09F
MARSHALL       CLEAR     35  34  97 CALM      30.10F
MOUNT PLEASANT CLEAR     39  35  85 CALM      30.09S
MUSKEGON       CLEAR     36  30  79 CALM      30.11S
SOUTH HAVEN    CLEAR     33  28  83 CALM      30.11F
$$
MIZ016>042-230900-
NORTHERN LOWER MICHIGAN

CITY           SKY/WX    TMP DP  RH WIND       PRES   REMARKS
ALPENA         CLEAR     40  30  67 SW5       30.04F
BEAVER ISLAND  CLEAR     42  33  71 SW14      30.01F
BELLAIRE       CLEAR     32  30  93 CALM      30.05F
CADILLAC       CLEAR     33  31  94 SW5       30.07F WCI  28
CHARLEVOIX     CLEAR     47  28  47 S8        30.04F
FRANKFORT      CLEAR     47  24  39 S3        30.07F
GAYLORD        CLEAR     44  23  43 SW8       30.04F
GRAYLING       CLEAR     27  24  89 CALM      30.07F
HARBOR SPRINGS CLEAR     36  28  72 CALM      30.02F
HOUGHTON LAKE  CLEAR     36  34  92 CALM      30.07F
MANISTEE       CLEAR     29  26  89 E5        30.08F WCI  24
OSCODA         CLEAR     37  27  69 SW6       30.06F WCI  32
PELLSTON       CLEAR     50  25  37 W9        30.01F
ROGERS CITY    CLEAR     46  25  42 SW12      30.01F
TRAVERSE CITY  CLEAR     48  24  39 SW6       30.04F
$$
MIZ007>008-015-230900-
EASTERN UPPER MICHIGAN

CITY           SKY/WX    TMP DP  RH WIND       PRES   REMARKS
KINROSS        MOCLDY    40  27  59 W6        29.99F
MACKINAC ISLAN CLEAR     45  30  57 SW15G24   29.98F
NEWBERRY       CLOUDY    37  32  83 W5        29.99S WCI  33
S. S. MARIE    CLOUDY    43  28  55 SW7       29.98F
MUNISING         N/A     41  37  86 NW15      30.03R
$$
MIZ004>006-011>014-085-230900-
CENTRAL UPPER MICHIGAN

CITY           SKY/WX    TMP DP  RH WIND       PRES   REMARKS
MANISTIQUE     CLOUDY    40  36  83 NW8       30.00S
ESCANABA       CLOUDY    46  35  65 N5        30.02S
MENOMINEE      CLOUDY    49  33  54 SW6       30.03F
SAWYER-GWINN   CLOUDY    42  38  87 N13       30.03R
$$
MIZ001>003-009>011-084-230900-
WESTERN UPPER MICHIGAN

CITY           SKY/WX    TMP DP  RH WIND       PRES   REMARKS
IRON MOUNTAIN  PTCLDY    43  29  57 N3        30.00F
HOUGHTON       LGT RAIN  35  31  85 N15       30.07S WCI  25
COPPER HARBOR    N/A     35  31  85 VRB3G18   30.11R
IRONWOOD       CLOUDY    43  39  86 NW12      30.08R
$$

ABBREVIATIONS USED IN REMARKS
   TC - TEMPERATURE IN CELSIUS
  WCI - WIND CHILL INDEX
   HX - HEAT INDEX
  VSB - VISIBILITY





USA.gov is the U.S. government's official web portal to all federal, state and local government web resources and services.